User: anonymous   Login
Location: Unspecified
(0.0000°N, 0.0000°E)
Time: 17:17:43
(UTC+00:00)
Language:

USA 238 - Orbit

View from above orbital plane
View from above orbital plane
View from above satellite
View from above satellite

Ground track
Ground track

The orbit data is extracted from the following two-line orbital elements,

1 38758U 12048A   18141.94879694 0.00000000  00000-0  00000-0 0    00
2 38758  63.4317 159.3270 0056000   6.5916 353.4084 13.40750966    00
Epoch (UTC): 21 May 2018 22:46:16
Eccentricity: 0.0056000
inclination: 63.4317°
perigee height: 1064 km
apogee height: 1148 km
right ascension of ascending node: 159.3270°
argument of perigee: 6.5916°
revolutions per day: 13.40750966
mean anomaly at epoch: 353.4084°
orbit number at epoch: 0

The dashed part of the orbit path shows where the satellite is in the earth's shadow,  

DLR